Zurück zum Katalog

COSMOS 1275 DEB

AktivPO
NORAD 12742·DEBRIS·🇷🇺 Russia

Gestartet Jun 4, 1981 von Plesetsk Cosmodrome

Loading…

Nächste Überflüge (nächste 24 Stunden)

TLE

AktuellSource: Space-Track

Epoche: Sep 14, 2026, 14:29 UTC

1 12742U 81053CK  26257.60361291  .00000085  00000-0  73646-4 0  9996
2 12742  82.9491 207.8554 0048645  45.1589  78.9345 13.73878123261111

Verfolge COSMOS 1275 DEB in Echtzeit mit AllMySat

Download on the App Store